This is the latest recevied weather packets stored in our database for station/object KF0ZH. If no packets are shown the sender has not sent any weather packets the latest 10 day(s).
| Time | Temp. | Humidity | Pressure | Rain* | Wind** | Luminosity | Snow |
|---|---|---|---|---|---|---|---|
| 1777901764 | 15.56° C | 56% | 996.3 hPa | 0 mm | 1.79 m/s, 270° | - | - |
| 1777901463 | 15.56° C | 56% | 996.1 hPa | 0 mm | 2.24 m/s, 307° | - | - |
| 1777901163 | 15.56° C | 56% | 996.1 hPa | 0 mm | 2.68 m/s, 267° | - | - |
| 1777900865 | 15.56° C | 58% | 996 hPa | 0 mm | 2.68 m/s, 306° | - | - |
| 1777900563 | 15.56° C | 59% | 996 hPa | 0 mm | 4.92 m/s, 267° | - | - |
| 1777900265 | 15.56° C | 58% | 995.9 hPa | 0 mm | 2.68 m/s, 291° | - | - |
| 1777899964 | 15° C | 59% | 995.6 hPa | 0 mm | 0 m/s | - | - |
| 1777899663 | 15° C | 59% | 995.6 hPa | 0 mm | 0 m/s | - | - |
| 1777899363 | 15° C | 59% | 995.7 hPa | 0 mm | 1.34 m/s, 267° | - | - |
| 1777899064 | 15° C | 59% | 995.7 hPa | 0 mm | 0 m/s | - | - |
| 1777898765 | 14.44° C | 59% | 995.7 hPa | 0 mm | 0 m/s | - | - |
| 1777898464 | 14.44° C | 59% | 995.7 hPa | 0 mm | 3.13 m/s, 270° | - | - |
| 1777898169 | 14.44° C | 58% | 995.6 hPa | 0 mm | 1.34 m/s, 268° | - | - |
| 1777897863 | 14.44° C | 58% | 995.6 hPa | 0 mm | 0 m/s | - | - |
| 1777897563 | 14.44° C | 58% | 995.4 hPa | 0 mm | 1.79 m/s, 219° | - | - |
| 1777897263 | 14.44° C | 58% | 995.4 hPa | 0 mm | 2.68 m/s, 268° | - | - |
| 1777896964 | 14.44° C | 57% | 995.3 hPa | 0 mm | 0 m/s | - | - |
| 1777896663 | 13.89° C | 57% | 995.3 hPa | 0 mm | 2.24 m/s, 282° | - | - |
| 1777896363 | 13.89° C | 57% | 995.1 hPa | 0 mm | 1.79 m/s, 222° | - | - |
| 1777896063 | 13.89° C | 58% | 995.1 hPa | 0 mm | 1.79 m/s, 226° | - | - |
| 1777895765 | 13.89° C | 58% | 995 hPa | 0 mm | 0 m/s | - | - |
| 1777895463 | 13.89° C | 58% | 995 hPa | 0.51 mm | 4.92 m/s, 236° | - | - |
| 1777895163 | 13.33° C | 58% | 994.7 hPa | 0.51 mm | 0 m/s | - | - |
| 1777894864 | 13.33° C | 59% | 994.5 hPa | 0.51 mm | 3.13 m/s, 267° | - | - |
| 1777894571 | 13.33° C | 58% | 994.5 hPa | 0.51 mm | 1.79 m/s, 286° | - | - |
* Rain latest hour (hover to see other rain measurements)
** Current wind speed in m/s (hover to see current wind gust speed)